Flag for USA

Past Weather in Stevenson, Washington, USA — Yesterday and Last 2 Weeks

Now
69 °F

Broken clouds.


Feels Like: 69 °F
Forecast: 73 / 58 °F
Wind: 5 mph from North

Location: Portland-Troutdale Airport

Current Time: Jul 9, 2020 at 2:07:46 pm

Latest Report: Jul 9, 2020 at 12:53 pm


Visibility: 10 mi

Pressure: 30.03 "Hg

Humidity: 55%

Dew Point: 52 °F

Location of StevensonLocation

Past Weather in Stevenson — Graph

°F

Stevenson Temperature Yesterday

Maximum temperature yesterday: 75 °F (at 5:53 pm)
Minimum temperature yesterday: 59 °F (at 3:53 am)
Average temperature yesterday: 66 °F

High & Low Weather Summary for the Past Weeks

 TemperatureHumidityPressure
High87 °F (Jun 26, 4:53 pm)90% (Jun 30, 5:17 am)30.21 "Hg (Jun 30, 5:17 am)
Low52 °F (Jul 3, 3:53 am)32% (Jun 26, 2:53 pm)29.87 "Hg (Jun 28, 5:53 pm)
Average64 °F63%30.04 "Hg
* Reported Jun 24 11:53 am — Jul 9 11:53 am, Stevenson. Weather by CustomWeather, © 2020

Note: Actual official high and low records may vary slightly from our data, if they occured in-between our weather recording intervals... More about our weather records

Stevenson Weather History for the Previous 24 Hours

Scroll right to see more
 ConditionsComfort  
Time TempWeatherWind HumidityBarometerVisibility
11:53 am
Thu, Jul 9
68 °FPassing clouds.No wind59%30.03 "Hg10 mi
10:53 am64 °FOvercast.No wind68%30.03 "Hg10 mi
9:53 am63 °FOvercast.3 mph70%30.03 "Hg10 mi
9:08 am62 °FCloudy.No wind75%30.03 "Hg10 mi
8:53 am61 °FMostly cloudy.No wind75%30.03 "Hg10 mi
7:53 am60 °FMostly cloudy.No wind75%30.02 "Hg10 mi
6:53 am58 °FMostly cloudy.3 mph81%30.01 "Hg10 mi
5:53 am57 °FBroken clouds.No wind81%30.01 "Hg10 mi
4:53 am57 °FOvercast.5 mph81%30.01 "Hg10 mi
3:53 am57 °FOvercast.3 mph81%30.01 "Hg10 mi
2:53 am57 °FPassing clouds.No wind81%30.01 "Hg10 mi
1:53 am58 °FClear.No wind78%30.01 "Hg10 mi
12:53 am61 °FClear.No wind70%30.01 "Hg10 mi
11:53 pm
Wed, Jul 8
63 °FClear.5 mph65%30.01 "Hg10 mi
10:53 pm65 °FClear.No wind61%30.01 "Hg10 mi
9:53 pm67 °FClear.No wind57%30.01 "Hg10 mi
8:53 pm70 °FSunny.No wind51%30.00 "Hg10 mi
7:53 pm72 °FSunny.3 mph46%30.00 "Hg10 mi
6:53 pm75 °FSunny.6 mph43%30.00 "Hg10 mi
5:53 pm75 °FSunny.3 mph42%30.01 "Hg10 mi
4:53 pm73 °FScattered clouds.3 mph46%30.03 "Hg10 mi
3:53 pm74 °FPassing clouds.7 mph43%30.04 "Hg10 mi
2:53 pm73 °FPartly sunny.3 mph44%30.06 "Hg10 mi
Weather by CustomWeather, © 2020

See weather overview